Flag for U.S.A. Weather past 2 weeks in Austin, Texas, U.S.A.

Now
72 °F

Fog.


Feels Like: 67 °F
Forecast: 70 / 88 °F
Wind: No wind

Location: Camp Mabry / Austin City

Current Time: Apr 25, 2015 at 7:19:49 AM

Latest Report: Apr 25, 2015 at 6:51 AM


Visibility: 3 mi

Pressure: 29.76 "Hg

Humidity: 97%

Dew point: 71 °F

Location of AustinLocation

Historic Weather in Austin — Graph

°F

Austin temperature yesterday

Maximum temperature yesterday: 83 °F (at 4:51 PM)
Minimum temperature yesterday: 69 °F (at 7:51 AM)
Average temperature yesterday: 76 °F

Past Weeks' High & Low Weather Summary

 TemperatureHumidityPressure
High89 °F (Apr 19, 3:51 PM)100% (Apr 11, 7:51 AM)30.19 "Hg (Apr 11, 7:51 AM)
Low52 °F (Apr 21, 5:51 AM)20% (Apr 19, 5:51 PM)29.67 "Hg (Apr 24, 6:51 PM)
Average70 °F76%29.91 "Hg
* Reported Apr 10 5:51 AM — Apr 25 5:51 AM, Austin, Weather by CustomWeather, © 2015

Note: Actual official high and low records may vary slightly from our data, if they occured in-between our weather recording intervals... More about our weather records

Advertising

Austin weather history for previous 24 hours

 ConditionsComfort  
Time TempWeatherWind HumidityBarometerVisibility
5:51 AM
Sat, Apr 25
73 °FThunderstorms. Fog.3 mph94%29.75 "Hg4 mi
4:51 AM73 °FThunderstorms. Fog.6 mph97%29.75 "Hg5 mi
4:01 AM74 °FThunderstorms. Fog.3 mph94%29.75 "Hg5 mi
2:51 AM74 °FFog.No wind97%29.72 "Hg4 mi
1:51 AM74 °FFog.No wind97%29.74 "Hg3 mi
12:51 AM74 °FFog.No wind97%29.73 "Hg4 mi
11:51 PM
Fri, Apr 24
76 °FFog.No wind91%29.71 "Hg6 mi
10:51 PM76 °FFog.No wind94%29.72 "Hg6 mi
9:51 PM77 °FLight rain. Fog.6 mph90%29.72 "Hg6 mi
8:51 PM79 °FScattered clouds.No wind82%29.70 "Hg10 mi
7:51 PM80 °FMostly cloudy.No wind79%29.67 "Hg10 mi
6:51 PM81 °FBroken clouds.5 mph74%29.67 "Hg9 mi
5:51 PM83 °FMostly cloudy.6 mph72%29.67 "Hg9 mi
4:51 PM83 °FPartly sunny.5 mph72%29.68 "Hg9 mi
3:51 PM82 °FMostly cloudy.9 mph72%29.70 "Hg9 mi
3:00 PM81 °FCloudy.8 mph74%29.77 "Hg8 mi
1:58 PM80 °FBroken clouds.7 mph79%29.79 "Hg9 mi
1:51 PM80 °FCloudy.7 mph79%29.76 "Hg9 mi
12:51 PM76 °FMostly cloudy.7 mph88%29.80 "Hg9 mi
11:51 AM75 °FMostly cloudy.10 mph88%29.83 "Hg10 mi
11:02 AM74 °FMostly cloudy.7 mph88%29.87 "Hg10 mi
9:51 AM72 °FFog.8 mph97%29.82 "Hg6 mi
8:51 AM70 °FFog.5 mph97%29.82 "Hg4 mi
7:51 AM69 °FRain. Fog.7 mph100%29.85 "Hg3 mi
7:00 AM72 °FStrong thunderstorms. Fog.3 mph97%29.92 "Hg1 mi
Weather by CustomWeather, © 2015

See weather overviewHow to use our weather pages